Location: Kürttac?n Il?cas?
(39.2058°N, 32.0640°E)
Time: 12:01:00
(UTC+00:00)

Daily predictions for brighter satellites

Satellite Brightness Start Highest point End
(mag) Time Altitude Azimuth Time Altitude Azimuth Time Altitude Azimuth
RESURS DK-1 2.2 16:58:30 10° SSW 17:02:25 73° ESE 17:06:22 10° NNE
SL-8 Rocket 4.0 16:56:29 10° S 17:02:39 65° E 17:08:53 10° NNE
USA 238 DEB 4.2 16:55:16 10° NNW 17:02:44 62° NE 17:10:48 10° SE
USA 238 4.2 16:55:27 10° NNW 17:02:55 62° NE 17:10:58 10° SE
Cosmos 2278 Rocket 2.2 16:59:43 10° NNW 17:05:24 72° ENE 17:11:02 10° SSE
Timation 2 Rocket 4.2 17:02:36 10° NNW 17:09:01 67° ENE 17:15:40 10° SSE
SL-8 R/B 3.7 17:07:15 10° WSW 17:12:00 84° NNW 17:16:44 10° ENE
OAO 2 Rocket 3.7 17:07:17 10° WSW 17:12:17 49° S 17:17:12 10° E
Cosmos 1125 Rocket 3.5 17:07:39 10° S 17:12:48 65° ESE 17:18:01 10° NNE
HBTSS-SV1 4.4 17:09:07 10° WSW 17:13:34 79° SSE 17:17:59 10° E
Cosmos 2341 Rocket 4.0 17:09:09 10° S 17:15:23 79° E 17:21:43 10° N
ERS-1 Rocket 4.1 17:14:26 10° ESE 17:18:30 26° ENE 17:22:36 10° NNE
CSL-04 Debris 4.5 17:14:58 10° SE 17:20:06 49° ENE 17:25:17 10° N
Cosmos 2366 rocket 3.9 17:14:05 10° S 17:20:13 81° E 17:26:22 10° N
In-Cosmos 22 Rocket 4.3 17:17:56 10° NNW 17:23:14 74° W 17:28:33 10° S
Cosmos 44 3.5 17:24:57 10° SSW 17:29:45 53° ESE 17:34:50 10° NE
SL-16 R/B 2.6 17:27:00 10° S 17:32:13 40° ESE 17:37:28 10° NE
NOSS 3 (A) 3.4 17:32:56 10° SSW 17:34:48 44° ESE 17:35:24 28° ENE
Okean O Rocket 3.3 17:38:37 14° E 17:40:02 16° ENE 17:42:40 10° NNE
Cosmos 1378 Rocket 3.7 17:36:47 10° N 17:41:02 51° E 17:44:31 14° SSE
SPOT 5 2.9 17:42:11 10° S 17:46:45 74° WSW 17:51:09 10° NNW
CZ-4 R/B 1.1 17:43:54 13° SSE 17:47:10 73° ENE 17:50:51 10° N
PAYLOAD B 4.3 17:47:02 14° SSE 17:51:35 59° ENE 17:56:59 10° N
Meteor 2-8 Rocket 4.5 17:46:30 10° SSE 17:52:24 56° E 17:58:17 10° NNE
Cosmos 1656 Rocket 3.9 17:47:22 10° NNW 17:52:42 51° ENE 17:56:01 22° SE
Cosmos 1821 Rocket 4.1 17:49:28 10° S 17:55:44 81° W 18:02:08 10° N
IRAS Rocket 4.3 17:50:30 10° SSE 17:55:59 82° WSW 18:01:30 10° NNW
Terra 2.0 17:53:33 21° SE 17:56:23 50° ENE 18:00:56 10° N
Cosmos 1733 Rocket 3.8 17:52:49 10° SSW 17:57:05 55° W 18:01:25 10° N
Cosmos 1025 Rocket 3.4 17:53:52 10° N 17:57:57 43° E 17:59:42 28° SE
CZ-4B R/B 4.1 17:55:16 11° S 17:58:47 64° W 18:02:35 10° NNW
Cosmos 2237 Rocket 4.1 17:55:16 10° WSW 18:00:18 32° WNW 18:05:24 10° N
Cosmos 2242 Rocket 3.8 17:57:02 10° NNW 18:01:26 68° W 18:05:46 10° S
Helios 1A Rocket 3.0 17:59:04 10° N 18:02:13 55° WNW 18:05:20 10° SSW
Resurs 01 Rocket 4.5 18:00:04 10° SW 18:02:24 14° W 18:04:45 10° WNW
CSL-04 Rocket 4.3 17:59:51 10° S 18:05:18 59° WSW 18:10:47 10° NNW
Cosmos 2150 Rocket 3.9 18:01:44 10° S 18:06:47 64° ESE 18:11:56 10° NNE
Cosmos 1300 Rocket 4.2 18:11:23 32° E 18:11:27 32° E 18:15:16 10° NNE
Meteor 2-16 Rocket 4.4 18:10:26 10° N 18:16:35 74° E 18:20:28 23° SSE
Cosmos 1000 Rocket 4.4 18:10:58 10° N 18:17:05 70° E 18:20:46 25° SSE
USA 59 Rocket 0.3 18:16:22 10° NW 18:20:05 61° WSW 18:22:13 31° S
Cosmos 1346 Rocket 2.4 18:16:32 10° N 18:20:09 85° ENE 18:20:53 54° SSE
OAO 3 Rocket 3.7 18:16:48 10° W 18:21:09 41° SSW 18:22:05 36° SSE
Gbstr 26 Del rocket 3.3 18:15:54 10° SW 18:21:23 60° SE 18:24:21 21° ENE
Feng Yun 1-1 Rocket 4.4 18:17:10 15° S 18:21:41 68° WSW 18:27:05 10° NNW
ASTEX 1 3.5 18:20:30 38° SE 18:22:03 54° E 18:26:51 10° N
SL-4 R/B 1.6 18:19:22 10° SW 18:23:08 69° SE 18:23:55 51° ENE
Meteor 1-31 Rocket 4.4 18:21:36 11° SSW 18:24:28 28° W 18:27:33 10° NW
Cosmos 2297 4.3 18:21:54 10° N 18:27:18 41° ENE 18:28:49 34° E
ADEOS 3.5 18:25:50 29° S 18:28:36 85° WSW 18:33:50 10° NNW
Cosmos 1869 3.3 18:32:16 52° NE 18:32:16 52° NE 18:35:11 10° NNE
Cosmos 2369 Rocket 2.5 18:26:26 10° NNW 18:31:50 49° ENE 18:33:13 40° ESE
Cosmos 1315 Rocket 4.5 18:34:16 20° NE 18:34:16 20° NE 18:35:43 10° NNE
Cosmos 2285 Rocket 4.0 18:26:49 10° SSW 18:33:12 84° WNW 18:39:34 10° NNE
USA 234 3.5 18:27:27 10° NE 18:33:58 70° NW 18:40:28 10° WSW
SL-08 R/B 3.6 18:32:57 10° N 18:37:50 69° WNW 18:42:30 11° SSW
USA 186 4.4 18:43:56 10° N 18:43:56 10° N 18:43:59 10° N
Cosmos 1943 3.2 18:41:49 45° SSE 18:43:14 58° ESE 18:48:48 10° NNE
Cosmos 2221 Rocket 3.5 18:40:07 10° N 18:44:33 81° W 18:45:17 61° S
YAOGAN 11 4.0 18:40:21 10° N 18:44:40 82° WNW 18:45:52 47° SSW
CZ-4B R/B 3.7 18:41:50 25° S 18:45:06 58° W 18:50:41 10° NNW
SL-08 R/B 4.4 18:44:31 10° N 18:50:46 90° E 18:53:09 41° S
CZ-4B R/B 4.4 18:52:52 22° NNE 18:52:52 22° NNE 18:54:22 10° N
HBTSS-SV1 4.4 18:50:51 10° W 18:55:12 80° NNW 18:55:12 80° NNW
OAO 2 Rocket 3.7 18:51:36 10° W 18:56:04 48° SSW 18:56:04 48° SSW
ERS-1 Rocket 4.3 18:54:02 19° SSW 18:57:00 34° W 19:01:33 10° NNW
Cosmos 1975 Rocket 4.1 18:55:55 10° N 18:58:58 36° NE 18:58:58 36° NE
Cosmos 2263 4.1 18:57:14 10° NNW 19:02:53 67° ENE 19:03:18 64° E
Okean-O 2.9 19:07:13 59° WSW 19:07:14 59° W 19:11:34 10° NNW
BREEZE-M DEB (TANK) 4.3 19:05:02 10° NW 19:06:41 28° N 19:06:41 28° N
Spot 3 4.5 19:08:57 74° S 19:09:25 85° WSW 19:14:46 10° NNW
CZ-4B R/B 3.7 19:15:34 56° NNE 19:15:34 56° NNE 19:19:31 10° N
Okean O Rocket 2.4 19:15:51 44° W 19:15:51 44° W 19:19:59 10° NNW
SL-16 R/B 4.1 19:11:33 10° WSW 19:16:23 28° WNW 19:21:15 10° N
Ariane Rocket 3.4 19:17:09 53° NE 19:17:09 53° NE 19:21:23 10° N
Cosmos 1782 Rocket 4.4 19:21:41 45° WNW 19:21:41 45° WNW 19:25:40 10° N
Spot 2 Rocket 4.4 19:23:15 39° WSW 19:23:57 41° W 19:28:42 10° NNW
Milstar 3 4.2 19:18:26 10° SW 19:41:39 - E 19:24:35 37° S
USA 245 4.2 19:28:49 63° WNW 19:28:49 63° WNW 19:33:36 10° NNW
Cosmos 1269 Rocket 4.3 19:25:29 10° NNW 19:29:59 64° N 19:29:59 64° N
ATLAS 5 CENTAUR R/B 3.8 19:29:55 10° N 19:31:56 17° NNE 19:31:56 17° NNE
Cosmos 1140 Rocket 3.8 19:28:36 10° NNW 19:32:51 62° NNW 19:32:51 62° NNW
NOSS 3-1 (C) 4.1 19:26:30 10° NW 19:34:01 83° WSW 19:35:43 62° SSE
Terra 4.2 19:32:09 12° WSW 19:34:10 15° W 19:36:54 10° NW
Cosmos 1447 Rocket 4.4 19:37:12 10° N 19:43:03 78° NNE 19:43:03 78° NNE
BREEZE-M DEB (TANK) 3.5 19:39:50 10° NW 19:43:44 84° NE 19:43:55 82° ENE
Cosmos 407 Rocket 4.5 19:45:27 10° NNW 19:48:51 40° N 19:48:51 40° N
COSMOS 2455 3.3 19:53:13 10° NNW 19:58:10 56° N 19:58:10 56° N
SJ 16-02 3.7 20:02:42 10° N 20:04:02 19° N 20:04:02 19° N
Cosmos 2369 Rocket 4.0 20:11:18 10° NW 20:14:59 21° W 20:14:59 21° W
SeaSat 1 4.5 20:17:06 21° NNE 20:17:06 21° NNE 20:19:29 10° N
NOSS 3-1 (A) 4.1 20:26:11 10° NW 20:33:20 75° W 20:33:20 75° W
ATLAS 3B R/B 4.3 21:00:09 10° NNW 21:06:46 29° NE 21:08:29 27° ENE
Cosmos 1833 Rocket 4.5 21:19:39 27° NNE 21:19:39 27° NNE 21:22:05 10° NNE
ATLAS 2AS CENTAUR R/B 3.5 21:38:07 47° N 21:38:07 47° N 21:43:20 10° NNE
CZ-2C R/B 4.5 21:47:41 28° NNE 21:47:41 28° NNE 21:50:19 10° N
ACS3 Solar Sail 3.6 21:58:22 10° NE 22:01:13 22° ENE 22:01:13 22° ENE
CZ-4C R/B 4.4 22:20:44 16° NE 22:20:44 16° NE 22:21:46 10° NE
Cosmos 1980 Rocket 3.9 22:24:06 10° NNW 22:26:38 28° NNW 22:26:38 28° NNW
ATLAS 3B R/B 3.6 22:50:35 10° NW 22:55:41 44° NW 22:55:41 44° NW
Cosmos 2082 Rocket 3.5 23:02:51 35° N 23:02:51 35° N 23:06:22 10° NNE
Cosmos 2333 Rocket 3.9 22:56:27 10° N 23:01:15 27° ENE 23:02:07 26° ENE
USA 267 4.5 22:58:04 10° ENE 23:02:10 30° E 23:02:10 30° E
Cosmos 2322 Rocket 4.3 23:08:10 10° N 23:12:28 22° NE 23:16:04 13° E
SL-16 R/B 3.0 23:22:59 10° NNW 23:27:50 48° NE 23:27:50 48° NE
Cosmos 2279 Rocket 4.3 23:43:05 60° NNW 23:43:05 60° NNW 23:48:16 10° N
ACS3 Solar Sail 2.6 23:40:13 10° N 23:44:47 40° NW 23:44:47 40° NW
IDEFIX/ARIANE 42P 3.4 23:42:40 10° N 23:46:20 47° N 23:46:20 47° N
ADEOS Rocket 3.6 23:42:56 10° NNE 23:50:38 72° ESE 23:52:01 60° SSE
Cosmos 1763 Rocket 4.1 23:52:00 54° NE 23:52:00 54° NE 23:56:10 10° NNE
